FW93366 Weather Reports


time (UTC)temp
F
wind
direction
speed
knots
gust
knots
rain 1hr
in
rain 24hr
in
rain mn
in
humidity
%
barometer
mb
20260504050116 50 0 0.0 0.0 0.00 0.03 0.03 77 1013.5
20260504044550 50 0 0.0 3.5 0.00 0.03 0.03 77 1013.5
20260504043042 50 0 0.0 2.6 0.00 0.03 0.03 77 1013.4
20260504041540 51 0 0.0 1.7 0.00 0.03 0.03 77 1013.4
20260504040046 51 0 0.0 1.7 0.00 0.03 0.03 77 1013.3
20260504034549 51 0 0.0 0.9 0.00 0.03 0.03 77 1013.1
20260504033054 51 0 0.0 1.7 0.00 0.03 0.03 75 1013.0
20260504031557 51 178 1.7 5.2 0.00 0.03 0.03 75 1012.8
20260504030043 53 0 0.9 2.6 0.00 0.03 0.03 71 1012.8
20260504024542 53 0 0.0 2.6 0.00 0.17 0.03 69 1012.8
20260504023046 53 0 0.0 3.5 0.00 0.17 0.03 66 1012.8
20260504021542 54 0 0.0 3.5 0.00 0.17 0.03 64 1012.5
20260504020040 54 0 0.0 4.3 0.00 0.17 0.03 65 1012.6
20260504014554 54 0 0.0 1.7 0.00 0.17 0.03 60 1012.9
20260504013048 54 0 0.0 0.0 0.00 0.17 0.03 60 1012.9
20260504011548 54 0 0.0 4.3 0.00 0.17 0.03 63 1013.1
20260504010053 54 182 2.6 7.8 0.00 0.17 0.03 66 1013.1
20260504004541 54 193 1.7 7.8 0.00 0.17 0.03 74 1013.1
20260504003042 54 0 0.0 1.7 0.00 0.17 0.03 74 1013.1
20260504001548 53 24 0.0 5.2 0.01 0.17 0.03 75 1012.8
20260504000049 51 28 0.9 3.5 0.01 0.17 0.03 78 1013.1
20260503234543 51 0 0.0 6.1 0.01 0.17 0.03 78 1013.2
20260503233048 51 238 3.5 7.0 0.01 0.17 0.03 76 1013.9
20260503231544 52 0 0.0 3.5 0.00 0.16 0.02 77 1014.5
20260503230048 52 0 0.0 7.0 0.00 0.16 0.02 74 1014.1
20260503224546 52 150 0.9 4.3 0.01 0.16 0.02 72 1014.1
20260503223042 51 178 4.3 13.0 0.01 0.16 0.02 72 1013.9
20260503221549 49 180 6.1 15.6 0.02 0.16 0.02 75 1014.1
20260503220058 50 196 4.3 15.6 0.02 0.16 0.02 73 1014.4
20260503214544 50 193 7.0 20.9 0.01 0.15 0.01 76 1014.8
20260503213040 49 172 13.9 25.2 0.01 0.15 0.01 76 1014.1
20260503211548 50 175 14.8 32.2 0.00 0.14 0.00 73 1013.8
20260503210055 58 144 18.2 29.5 0.00 0.14 0.00 48 1012.2
20260503204558 63 190 7.0 17.4 0.00 0.14 0.00 41 1011.5
20260503203059 64 221 3.5 10.4 0.00 0.14 0.00 38 1011.3
20260503201549 63 229 3.5 8.7 0.00 0.14 0.00 45 1011.5
20260503200049 64 186 3.5 9.6 0.00 0.14 0.00 47 1011.8
20260503194603 64 171 3.5 8.7 0.00 0.14 0.00 45 1011.8
20260503193047 65 186 1.7 4.3 0.00 0.14 0.00 42 1011.8
20260503191543 65 0 1.7 7.0 0.00 0.14 0.00 43 1011.9
20260503190059 64 350 0.9 3.5 0.00 0.14 0.00 47 1012.2
20260503184541 63 38 0.9 3.5 0.00 0.14 0.00 50 1012.4
20260503183050 62 317 1.7 6.1 0.00 0.14 0.00 52 1012.8
20260503181542 62 259 0.9 4.3 0.00 0.14 0.00 55 1012.9
20260503174547 60 265 0.0 3.5 0.00 0.14 0.00 58 1013.5
20260503173131 60 0 0.0 5.2 0.00 0.14 0.00 64 1013.5
20260503171548 58 0 0.0 4.3 0.00 0.14 0.00 68 1013.6
20260503081550 50 0 0.0 1.7 0.00 0.14 0.00 83 1016.0
20260503071543 52 0 0.0 0.9 0.00 0.14 0.00 78 1016.2